This demonstration page uses our WeatherBlox Daily Observations layout. Learn more.

Left ArrowRight Arrow

Hourly Observations for May 28, 2017

Temp ( °F °C ) Dew Point ( °F °C ) Humidity (%) Winds ( mph kmh ) Pressure ( in mb ) Visibility ( mi km ) Precip ( " mm )
12:53 am 00:53 Mostly Clear 75 23.9 72 22.2 90 90 SW 3 6 29.93 1014 10 16 0.00 0.00
1:53 am 01:53 Mostly Cloudy with Light Rain 69 20.6 63 17.2 81 81 N 9 15 29.98 1015 10 16 0.00 0.03
2:53 am 02:53 Mostly Clear 68 20 63 17.2 84 84 S 5 7 29.93 1013 10 16 0.00 0.03
3:53 am 03:53 Clear 67 19.4 64 17.8 91 91 SSW 3 6 29.91 1013 10 16 0.00 0.00
4:53 am 04:53 Mostly Cloudy 67 19.4 63 17.2 87 87 Calm 29.89 1012 10 16 0.00 0.00
5:53 am 05:53 Cloudy with Nearby Thunderstorms 68 20 64 17.8 87 87 VRB 5 7 29.93 1014 10 16 0.00 0.00
5:56 am 05:56 Cloudy with Thunderstorms 68 20 64 17.8 87 87 WNW 29 46 30.06 1018 10 16 0.00 0.00
6:02 am 06:02 Cloudy with Strong Thunderstorms 67 19.4 64 17.8 91 91 NW 25 41 30.03 1017 2 3 0.21 5.33
6:17 am 06:17 Cloudy with Thunderstorms 65 18.3 65 18.3 100 100 Calm 30.00 1016 3 5 0.43 10.92
6:48 am 06:48 Mostly Cloudy with Nearby Thunderstorms 64 18 64 18 100 100 SSW 6 9 29.94 1014 10 16 0.45 11.43
6:53 am 06:53 Partly Cloudy with Nearby Thunderstorms 65 18.3 65 18.3 100 100 WNW 7 11 29.95 1014 10 16 0.45 11.43
7:05 am 07:05 Mostly Sunny 65 18.3 65 18.3 100 100 SSW 6 9 29.97 1015 10 16 0.00 0.00
7:53 am 07:53 Mostly Cloudy 65 18.3 65 18.3 100 100 S 6 9 29.94 1014 10 16 0.00 0.00
8:30 am 08:30 Partly Cloudy 66 18.9 66 18.9 100 100 W 6 9 30.00 1016 10 16 0.00 0.00
8:53 am 08:53 Mostly Cloudy with Light Rain 65 18.3 65 18.3 100 100 SW 7 11 29.97 1015 10 16 0.00 0.03
9:37 am 09:37 Partly Cloudy 67 19.4 67 19.4 100 100 SSW 7 11 29.97 1015 10 16 0.01 0.25
9:53 am 09:53 Mostly Cloudy 68 20 67 19.4 96 96 SW 8 13 29.96 1015 10 16 0.01 0.25
10:53 am 10:53 Partly Cloudy 73 22.8 68 20 84 84 SSW 10 17 29.95 1014 10 16 0.00 0.00
11:33 am 11:33 Mostly Cloudy 75 23.9 69 20.6 82 82 SW 10 17 29.94 1014 10 16 0.00 0.00
11:53 am 11:53 Cloudy 76 24.4 70 21.1 82 82 WSW 8 13 29.94 1014 10 16 0.00 0.00
12:53 pm 12:53 Mostly Cloudy 80 26.7 70 21.1 71 71 SW 10 17 29.93 1014 10 16 0.00 0.00
1:02 pm 13:02 Partly Cloudy 80 26.7 70 21.1 71 71 SW 10 17 29.94 1014 10 16 0.00 0.00
1:53 pm 13:53 Mostly Sunny 82 27.8 70 21.1 67 67 SSW 12 19 29.91 1013 10 16 0.00 0.00
2:53 pm 14:53 Sunny 83 28.3 68 20 61 61 SW 12 19 29.87 1011 10 16 0.00 0.00
3:53 pm 15:53 Sunny 83 28.3 69 20.6 63 63 SSW 12 19 29.85 1011 10 16 0.00 0.00
4:53 pm 16:53 Sunny 83 28.3 68 20 61 61 WSW 8 13 29.87 1012 10 16 0.00 0.00
5:53 pm 17:53 Sunny 84 28.9 68 20 59 59 WSW 8 13 29.88 1012 10 16 0.00 0.00
6:53 pm 18:53 Sunny 84 28.9 65 18.3 53 53 W 8 13 29.89 1012 10 16 0.00 0.00
7:53 pm 19:53 Sunny 81 27.2 66 18.9 61 61 W 7 11 29.90 1013 10 16 0.00 0.00
8:53 pm 20:53 Clear 79 26.1 65 18.3 62 62 W 3 6 29.90 1013 10 16 0.00 0.00
9:53 pm 21:53 Clear 74 23.3 67 19.4 79 79 Calm 29.90 1012 10 16 0.00 0.00
10:53 pm 22:53 Clear 72 22.2 67 19.4 84 84 SW 3 6 29.92 1013 10 16 0.00 0.00
11:53 pm 23:53 Clear 72 22.2 66 18.9 82 82 SSW 5 7 29.93 1014 10 16 0.00 0.00

Powered by AerisWeather